Regional Weather Roundup
Issued by NWS

Home | Current Version | Previous Version | Graphics & Text | Print | Product List | Glossary On
Versions: 1 2 3 4 5 6 7 8 9 10 11 12 13 14 15 16 17 18 19 20 21 22 23 24 25 26 27 28 29 30 31 32 33 34 35 36 37 38 39 40 41 42 43 44 45 46 47 48 49 50
000
ASUS45 KTFX 171519
RWRMT
MONTANA HOURLY WEATHER ROUNDUP
NATIONAL WEATHER SERVICE GREAT FALLS MT
919 AM MDT WED SEP 17 2014

NOTE: "FAIR" INDICATES FEW OR NO CLOUDS BELOW 12000 FEET WITH NO
SIGNIFICANT WEATHER AND/OR OBSTRUCTIONS TO VISIBILITY.

* THESE STATIONS ARE NOT UNDER NWS QUALITY CONTROL. THEY DO NOT
   REPORT WEATHER SUCH AS PRECIPITATION OR FOG.

MTZ001>007-043-171600-
WEST OF THE DIVIDE
CITY           SKY/WX    TMP DP  RH WIND       PRES   REMARKS
KALISPELL      PTCLDY    55  46  72 NW3       29.91R
MISSOULA       SUNNY     52  45  77 CALM      29.96S
BUTTE          SUNNY     45  39  80 CALM      30.07S
MULLAN PASS    PTCLDY    61  37  41 S5        30.01S
* ESSEX        N/A       51  42  71 S8         N/A
* LINCOLN      N/A       39  37  93 N/A        N/A
* LOOKOUT PASS N/A       52  42  69 S2         N/A
* POLSON       N/A       52  43  72 N/A        N/A
* RONAN APT    PTCLDY    54  46  74 N/A        N/A
* SEELEY LAKE  N/A       39  36  89 N/A        N/A
* THOMP F APT  PTCLDY    56  39  53 NE3        N/A
$$

MTZ008-052>055-171600-
SOUTHWEST MONTANA
CITY           SKY/WX    TMP DP  RH WIND       PRES   REMARKS
BOZEMAN        SUNNY     55  48  77 CALM      30.03R
DILLON         HAZE      54  43  67 SW7       30.06R
W YELLOWSTONE  SUNNY     45  39  80 CALM      30.18S
* THREE FORKS  SUNNY     52  30  43 N/A        N/A
* BOULDER HILL N/A       53  41  64 S11        N/A
* MONIDA PASS  N/A       47  40  77 W6         N/A
* RAYNOLDS PAS N/A       48  30  50 SE3        N/A
* WHITEHALL    N/A       46  42  86 NW1        N/A
* WISE RIVER   N/A       39  37  93 W6         N/A   WCI  35
$$

MTZ009>010-012-014-046-048-049-054-171600-
EAST SLOPES AND CENTRAL MONTANA
CITY           SKY/WX    TMP DP  RH WIND       PRES   REMARKS
CUT BANK       PTSUNNY   61  45  56 NW3       29.91S
GREAT FALLS    PTCLDY    64  48  56 CALM      29.91R
HELENA         PTCLDY    54  46  74 CALM      29.98S
MALMSTROM AFB  PTCLDY    61  50  67 NE3       29.92R
* CONRAD       PTCLDY    55  52  90 N/A        N/A
* EAST GLACIER N/A       54  40  59 NW6        N/A
* MONARCH      N/A       51  41  69 S12        N/A
* PENDROY      N/A       62  45  54 W1         N/A
* ROGERS PASS  N/A       56  39  53 NW7G12     N/A
* SAINT MARY   N/A       40  38  93 SE3        N/A
* SWEET GRASS  N/A       63  37  38 NW1        N/A
* WHITE SULPH  N/A       54  47  77 NE3        N/A
$$

MTZ011-013-016-021-035-040-045-047-050-051-171600-
NORTH CENTRAL MONTANA
CITY           SKY/WX    TMP DP  RH WIND       PRES   REMARKS
HAVRE          SUNNY     57  48  72 CALM      29.88S
LEWISTOWN      PTCLDY    61  46  58 SE6       29.95S
* CHINOOK      SUNNY     59  52  78 CALM      29.88S
* FORT BENTON  PTCLDY    64  46  52 CALM      29.89F
* CHESTER      N/A       50  43  77 NE1        N/A
* DENTON       N/A       61  47  60 SE1G6      N/A
* GEYSER       N/A       60  49  67 S8         N/A
* JUDITH GAP   N/A       59  51  75 SW4        N/A
* LOMA         N/A       55  49  80 S3         N/A
$$

MTZ017>020-022>027-061-062-171600-
NORTHEAST MONTANA
CITY           SKY/WX    TMP DP  RH WIND       PRES   REMARKS
GLASGOW        CLOUDY    55  41  59 SE9       29.91R
GLENDIVE       PTSUNNY   55  46  72 N6        29.96S
JORDAN         PTSUNNY   55  50  83 CALM      29.90S
SIDNEY         PTSUNNY   55  45  69 CALM      29.97R
WOLF POINT     CLOUDY    52  39  61 E8        29.93S
* BEAVER HILL  N/A       60  47  62 SE11G16    N/A
* CIRCLE       N/A       58  50  75 N/A        N/A
* LINDSAY DVD  N/A       59  47  65 E5         N/A
* NAVAJO       N/A       56  42  60 SE1        N/A
* SACO         N/A       54  46  74 NE4        N/A
$$

MTZ028>042-056>058-171600-
SOUTHCENTRAL AND SOUTHEAST MONTANA
CITY           SKY/WX    TMP DP  RH WIND       PRES   REMARKS
BAKER          PTSUNNY   59  48  67 SE8       29.96S
BILLINGS       PTCLDY    66  46  49 SW13      29.95R
LIVINGSTON     SUNNY     55  45  69 NW7       30.02S
MILES CITY     CLOUDY    55  48  77 NE8       29.91F
* LAUREL APT   PTCLDY    64  46  52 SW9        N/A
* ROUNDUP APT  PTCLDY    59  46  62 S10G15     N/A
* ALZADA       N/A       57  44  62 E4         N/A
* HYSHAM       N/A       61  43  52 NW1G6      N/A
* LAME DEER    N/A       66  43  43 W7         N/A
* REED POINT   N/A       54  49  83 W8         N/A
* ROSCOE HILL  N/A       63  39  41 S3         N/A
$$

REGIONAL REPORTS...DAKOTAS
CITY           SKY/WX    TMP DP  RH WIND       PRES   REMARKS
WILLISTON      PTCLDY    54  43  67 CALM      29.96S
DICKINSON      PTSUNNY   57  48  72 SE5       29.96R
BEACH          N/A       59  52  78 SE12      29.97S
CROSBY         SUNNY     55  45  69 E13       29.99R
TIOGA          SUNNY     57  46  67 E6G16     30.00R
WATFORD CITY   SUNNY     57  41  55 E3        29.94F
BISMARCK       PTCLDY    54  46  74 CALM      29.98R
GRAND FORKS    SUNNY     54  48  80 N9        29.97R
FARGO          SUNNY     61  48  62 N3        29.94R
BUFFALO SD     PTCLDY    61  50  67 E7        29.90S
RAPID CITY     PTCLDY    70  45  41 N7        29.97S
$$

REGIONAL REPORTS...WYOMING/IDAHO/WASHINGTON
CITY           SKY/WX    TMP DP  RH WIND       PRES   REMARKS
GILLETTE       PTSUNNY   70  43  38 W9        30.00R
SHERIDAN       PTCLDY    64  50  61 CALM      29.96F
CODY           SUNNY     64  45  50 SW6       30.05S
YELLOWSTONE LA SUNNY     46  39  77 CALM      30.26R
SALMON         PTCLDY    52  45  77 CALM      30.02F
MULLAN PASS    PTCLDY    61  37  41 S5        30.01S
SAND POINT     PTCLDY    50  50 100 CALM      29.87S
SPOKANE        PTSUNNY   59  45  60 E6        29.84S
$$

REGIONAL REPORTS...ALBERTA
CITY           SKY/WX    TMP DP  RH WIND       PRES   REMARKS
CALGARY        PTCLDY    50  39  66 S5        29.87F
LETHBRIDGE     SUNNY     54  46  74 SW6       29.87S
MEDICINE HAT   SUNNY     52  46  80 VRB2      29.86F
EDMONTON       SUNNY     48  46  93 VRB2      29.81S
WATERTON GATE  N/A       55  43  64 S7         N/A
CARDSTON       N/A       50  46  86 SE2        N/A
MILK RIVER     N/A       55  45  69 W7         N/A
$$

REGIONAL REPORTS...SASKATCHEWAN
CITY           SKY/WX    TMP DP  RH WIND       PRES   REMARKS
SWIFT CURRENT  SUNNY     57  48  72 E5        29.90S
MOOSE JAW      FOG       46  46 100 SE6       29.97R VSB 3/4
REGINA         CLOUDY    46  46 100 E13G18    29.98R
VAL MARIE      N/A       54  48  80 NE3        N/A
ASSINIBOIA     N/A       57  46  67 E6         N/A
CORONACH       N/A       55  46  72 E1         N/A

$$




USA.gov is the U.S. government's official web portal to all federal, state and local government web resources and services.